EW3204 Weather Reports


Display with metric or nautical units.
time (UTC)temp
F
wind
direction
speed
MPH
gust
MPH
rain 1hr
in
rain 24hr
in
rain mn
in
humidity
%
barometer
mb
20260901054545 85 65 0.0 0.0 0.00 0.00 0.00 28 1007.4
20260901053052 85 65 1.0 0.0 0.00 0.00 0.00 27 1007.5
20260901051546 85 146 2.0 0.0 0.00 0.00 0.00 27 1007.4
20260901050044 86 141 3.0 0.0 0.00 0.00 0.00 26 1007.3
20260901044543 86 265 6.0 0.0 0.00 0.00 0.00 24 1007.2
20260901043043 86 294 7.0 0.0 0.00 0.00 0.00 24 1007.1
20260901041542 86 316 4.0 0.0 0.00 0.00 0.00 27 1007.0
20260901040042 87 340 4.0 0.0 0.00 0.00 0.00 27 1007.0
20260901034542 88 228 4.0 0.0 0.00 0.00 0.00 29 1006.9
20260901033044 88 245 3.0 0.0 0.00 0.00 0.00 30 1006.7
20260901031540 88 240 1.0 0.0 0.00 0.00 0.00 29 1006.5
20260901030039 89 295 3.0 0.0 0.00 0.00 0.00 29 1006.3
20260901024539 89 283 8.0 0.0 0.00 0.00 0.00 29 1006.1
20260901023038 89 283 11.0 0.0 0.00 0.00 0.00 29 1005.9
20260901021538 90 285 13.0 0.0 0.00 0.00 0.00 29 1005.8
20260901020037 91 235 10.0 0.0 0.00 0.00 0.00 28 1005.6
20260901014536 93 219 4.0 0.0 0.00 0.00 0.00 26 1005.4
20260901013036 95 242 4.0 0.0 0.00 0.00 0.00 24 1005.2
20260901011621 96 260 6.0 0.0 0.00 0.00 0.00 20 1005.0
20260901010020 96 276 9.0 0.0 0.00 0.00 0.00 22 1004.7
20260901004516 97 277 11.0 0.0 0.00 0.00 0.00 22 1004.6
20260901003009 97 251 10.0 0.0 0.00 0.00 0.00 22 1004.5
20260901001513 97 251 10.0 0.0 0.00 0.00 0.00 21 1004.6
20260901000007 98 243 11.0 0.0 0.00 0.00 0.00 20 1004.6
20260831234508 98 225 11.0 0.0 0.00 0.00 0.00 20 1004.6
20260831233006 99 222 10.0 0.0 0.00 0.00 0.00 21 1004.6
20260831231505 100 244 14.0 0.0 0.00 0.00 0.00 20 1004.5
20260831230005 99 300 17.0 0.0 0.00 0.00 0.00 20 1004.5
20260831224505 100 300 13.0 0.0 0.00 0.00 0.00 20 1004.6
20260831223003 100 267 13.0 0.0 0.00 0.00 0.00 19 1004.6
20260831221501 101 313 9.0 0.0 0.00 0.00 0.00 17 1004.7
20260831220059 101 197 3.0 0.0 0.00 0.00 0.00 16 1005.0
20260831214606 101 294 4.0 0.0 0.00 0.00 0.00 16 1005.1
20260831213102 99 64 6.0 0.0 0.00 0.00 0.00 16 1005.5
20260831211554 99 188 2.0 0.0 0.00 0.00 0.00 16 1005.7
20260831210053 99 355 3.0 0.0 0.00 0.00 0.00 16 1005.9
20260831204556 100 343 4.0 0.0 0.00 0.00 0.00 15 1006.1
20260831203059 99 5 3.0 0.0 0.00 0.00 0.00 16 1006.4
20260831201558 98 83 4.0 0.0 0.00 0.00 0.00 16 1006.6
20260831200046 98 81 3.0 0.0 0.00 0.00 0.00 16 1006.7
20260831194547 98 43 5.0 0.0 0.00 0.00 0.00 16 1006.9
20260831193113 97 263 2.0 0.0 0.00 0.00 0.00 16 1007.2
20260831191542 96 50 4.0 0.0 0.00 0.00 0.00 16 1007.5
20260831190044 96 335 3.0 0.0 0.00 0.00 0.00 16 1007.5
20260831184538 96 54 6.0 0.0 0.00 0.00 0.00 16 1007.7
20260831183038 95 31 6.0 0.0 0.00 0.00 0.00 16 1007.8
20260831181547 95 77 4.0 0.0 0.00 0.00 0.00 18 1007.8
20260831180038 94 108 5.0 0.0 0.00 0.00 0.00 18 1007.8
20260831174535 94 117 4.0 0.0 0.00 0.00 0.00 17 1007.9
20260831173033 94 84 5.0 0.0 0.00 0.00 0.00 17 1008.0
20260831171530 94 113 3.0 0.0 0.00 0.00 0.00 15 1007.9
20260831170033 92 16 4.0 0.0 0.00 0.00 0.00 15 1007.8
20260831164525 92 171 3.0 0.0 0.00 0.00 0.00 16 1007.8
20260831163026 91 127 3.0 0.0 0.00 0.00 0.00 15 1007.8
20260831161534 91 106 2.0 0.0 0.00 0.00 0.00 15 1007.8
20260831160020 90 83 3.0 0.0 0.00 0.00 0.00 15 1007.8
20260831154519 90 57 2.0 0.0 0.00 0.00 0.00 14 1007.7
20260831153018 89 81 1.0 0.0 0.00 0.00 0.00 15 1007.8
20260831151516 87 95 3.0 0.0 0.00 0.00 0.00 17 1007.8
20260831150015 87 107 2.0 0.0 0.00 0.00 0.00 17 1007.7
20260831144515 85 129 2.0 0.0 0.00 0.00 0.00 19 1007.7
20260831143015 84 59 2.0 0.0 0.00 0.00 0.00 20 1007.4
20260831141510 83 79 2.0 0.0 0.00 0.00 0.00 20 1007.2
20260831140008 82 85 2.0 0.0 0.00 0.00 0.00 21 1006.9
20260831134506 81 308 2.0 0.0 0.00 0.00 0.00 21 1006.6
20260831133004 81 80 2.0 0.0 0.00 0.00 0.00 21 1006.4
20260831131502 80 94 4.0 0.0 0.00 0.00 0.00 22 1006.3
20260831124600 80 300 1.0 0.0 0.00 0.00 0.00 22 1006.0
20260831123057 79 300 1.0 0.0 0.00 0.00 0.00 22 1006.0
20260831121555 80 300 2.0 0.0 0.00 0.00 0.00 22 1005.9
20260831120054 80 327 2.0 0.0 0.00 0.00 0.00 21 1005.7
20260831114551 81 32 1.0 0.0 0.00 0.00 0.00 21 1005.8
20260831113050 82 32 2.0 0.0 0.00 0.00 0.00 20 1005.8
20260831111546 83 175 2.0 0.0 0.00 0.00 0.00 19 1005.8
20260831110151 83 139 2.0 0.0 0.00 0.00 0.00 19 1005.7
20260831104523 83 102 5.0 0.0 0.00 0.00 0.00 19 1005.5
20260831103015 85 167 2.0 0.0 0.00 0.00 0.00 18 1005.4
20260831101506 86 113 3.0 0.0 0.00 0.00 0.00 17 1005.3
20260831100005 87 267 5.0 0.0 0.00 0.00 0.00 16 1005.1
20260831094556 87 202 4.0 0.0 0.00 0.00 0.00 17 1005.2
20260831093059 87 157 4.0 0.0 0.00 0.00 0.00 16 1005.4
20260831091534 88 260 8.0 0.0 0.00 0.00 0.00 15 1005.2
20260831090033 88 269 5.0 0.0 0.00 0.00 0.00 16 1005.3
20260831084642 87 302 2.0 0.0 0.00 0.00 0.00 17 1005.6
20260831083027 88 279 4.0 0.0 0.00 0.00 0.00 16 1005.7
20260831081526 88 239 4.0 0.0 0.00 0.00 0.00 17 1005.9
20260831080041 89 250 8.0 0.0 0.00 0.00 0.00 16 1005.8
20260831074524 89 243 7.0 0.0 0.00 0.00 0.00 16 1005.9
20260831073023 88 305 5.0 0.0 0.00 0.00 0.00 16 1005.9
20260831071535 89 282 7.0 0.0 0.00 0.00 0.00 16 1005.9
20260831070018 90 246 9.0 0.0 0.00 0.00 0.00 16 1005.8
20260831064517 90 253 9.0 0.0 0.00 0.00 0.00 17 1005.9
20260831063017 90 254 9.0 0.0 0.00 0.00 0.00 17 1005.9
20260831061515 90 240 7.0 0.0 0.00 0.00 0.00 17 1005.7